Hourly Data Report for October 30, 2016

All times are specified in Local Standard Time (LST). Add 1 hour to adjust for Daylight Saving Time where and when it is observed.

CLYDE RIVER A
NUNAVUT

70°29'09.000" N
68°31'01.000" W
26.50 m
2400804
71090
YCY

Download Data

Hourly Data (October 2016)
Hourly Data Report for October 30, 2016
Temp Definition
°C
Dew Point Temp Definition
°C
Rel Hum Definition
%
Wind Dir Definition
10's deg

Wind Spd Definition
km/h
Visibility Definition
km
Stn Press Definition
kPa
Hmdx Definition


Wind Chill Definition


Weather Definition


TIME
00:00 Legend Double Dagger -1.6 -3.3 89 8 43 12.9 100.17   -10 LegendNANA
01:00 Legend Double Dagger -1.5 -2.8 91 7 46 9.7 100.14   -10 Snow
02:00 Legend Double Dagger -1.7 -2.7 93 8 50 2.8 100.12   -10 Snow
03:00 Legend Double Dagger -1.8 -2.8 93 7 45 2.8 100.08   -10 Snow
04:00 Legend Double Dagger -1.8 -2.8 93 7 46 3.6 100.05   -10 Snow
05:00 Legend Double Dagger -1.9 -2.7 94 7 45 2.0 100.04   -10 Snow
06:00 Legend Double Dagger -1.9 -2.6 95 7 48 1.2 100.03   -11 Snow
07:00 Legend Double Dagger -1.6 -2.2 96 7 41 2.4 100.00   -10 Snow
08:00 Legend Double Dagger -1.5 -2.1 95 7 43 2.0 99.97   -10 Snow
09:00 Legend Double Dagger -1.6 -2.4 94 7 46 2.0 99.96   -10 Snow
10:00 Legend Double Dagger -2.0 -2.7 95 7 46 1.6 99.92   -11 Snow
11:00 Legend Double Dagger -2.0 -2.7 95 5 41 1.6 99.84   -10 Snow
12:00 Legend Double Dagger -1.7 -2.3 96 6 48 1.2 99.78   -10 Snow
13:00 Legend Double Dagger -2.5 -3.2 95 9 22 2.0 99.84   -9 Snow
14:00 Legend Double Dagger -3.4 -5.7 84 9 28 16.1 99.85   -11 LegendNANA
15:00 Legend Double Dagger -3.4 -4.1 95 7 28 3.6 99.83   -11 Snow
16:00 Legend Double Dagger -2.2 -3.9 88 10 32 16.1 99.79   -10 LegendNANA
17:00 Legend Double Dagger -3.0 -4.3 91 13 28 16.1 99.84   -10 Snow
18:00 Legend Double Dagger -4.0 -5.0 93 13 34 16.1 99.90   -12 LegendNANA
19:00 Legend Double Dagger -5.4 -7.5 85 16 35 16.1 100.05   -14 LegendNANA
20:00 Legend Double Dagger -6.2 -9.1 80 16 15 16.1 100.08   -12 LegendNANA
21:00 Legend Double Dagger -5.7 -7.5 87 15 9 16.1 100.02   -10 LegendNANA
22:00 Legend Double Dagger -5.9 -7.1 91 5 5 16.1 99.95   -8 Snow
23:00 Legend Double Dagger -3.4 -3.8 97 5 5 1.6 99.86   -5 Snow

Notes on Data Quality.

Legend

  • E = Estimated
  • M = Missing
  • NA = Not Available
  • ‡ = Partner data that is not subject to review by the National Climate Archives
Date modified: